COSMOS 1375 DEB, 18279

Orbit data source: Space-Track

COSMOS 1375 DEB, 18279 is space debris in LEO originally from a launch on Sun, 06 Jun 1982 UTC launched from the Plesetsk Missile And Space Complex (PKMTR). Debris objects in space refer to the collection of defunct objects orbiting the Earth. Examples of debris include non-operational satellites, rocket bodies, and fragments generated from explosions, collisions, or faulty payload assembly.

Loading next visibility...
Identifier
18279, 1982-055BB
Orbit
LEO
Country
Flag of CISCIS
Related business
Manufacturer
Unknown
Mission
Spacecraft
Bus & Motor
Unknown
Mass
Unknown
Launch date (UTC)
1982-06-06 (44 years ago)
Launch vehicle
Unknown
Launch site
Plesetsk Missile And Space Complex (PKMTR)
Object type
Payload
Rocket body
Debris
Shape & HBR
Unknown shape, 0.1 m
Radar Cross Section
Small (<0.1 m²)

Expand to show TLE details & history
Last TLE update: 3 days ago

TLE from 3 days ago
0 COSMOS 1375 DEB
1 18279U 82055BB  26170.83837306  .00001478  00000-0  10064-2 0  9994
2 18279  65.7895  80.4061 0049298 352.9053  68.4183 14.02413767 47845
Epoch: 2026-06-19T20:07Z
TLE epoch observation values (Epoch: 2026-06-19T20:07:15.432Z)
Latitude
53.64928°
Longitude
-92.04214°
Altitude
880.306 km
Speed
7.424 km/s
True Right ascension
07h 51m 20s
True Declination
53° 29' 16"
Sunlit
Object was in daylight at epoch
Visualization orbit readout
Latitude
Unknown
Longitude
Unknown
Altitude
Unknown
Speed
Unknown
Apparent Right ascension
Unknown
Apparent Declination
Unknown
Sunlit
N/A
Visualization observer readout
Local Sidereal Time
05:18:44
Azimuth
Unknown
Elevation
Unknown
Doppler factor
Unknown
Orbital elements
Apogee altitude
919.752 km
Perigee altitude
848.151 km
Semi-major axis
7,262.088 km
Eccentricity
0.00493
Inclination
65.7895°
RAAN
80.4061°
Arg. of periapsis
352.9053°
True anomaly
68.9448°
Mean anomaly
68.4183°
Eccentric anomaly
68.68143°
Mean motion
3.50712 °/min
Orbital period
102.65 mins
BSTAR
0.0010064
Loading maneuver chart data...
Computing Atmospheric mass density...
Loading historical data...
Loading historical data...
Loading historical data...
Loading historical data...
Loading historical data...
Loading historical data...
Loading historical data...

Documentation

Showing up to 5 results
|